This is the latest recevied weather packets stored in our database for station/object DL6MAA-11. If no packets are shown the sender has not sent any weather packets the latest 1 day(s).
| Time | Temp. | Humidity | Pressure | Rain* | Wind** | Luminosity | Snow |
|---|---|---|---|---|---|---|---|
| 1777993318 | 17.22° C | 58% | 1004.4 hPa | 0 mm | 1.79 m/s, 325° | 204 W/m² | - |
| 1777993024 | 17.22° C | 56% | 1004.4 hPa | 0 mm | 1.79 m/s, 337° | 160 W/m² | - |
| 1777992723 | 17.22° C | 57% | 1004.4 hPa | 0 mm | 1.34 m/s, 299° | 149 W/m² | - |
| 1777992422 | 17.22° C | 57% | 1004.4 hPa | 0 mm | 0.89 m/s, 296° | 118 W/m² | - |
| 1777992110 | 17.22° C | 57% | 1004.2 hPa | 0 mm | 1.34 m/s, 290° | 135 W/m² | - |
| 1777991830 | 17.22° C | 56% | 1004.2 hPa | 0 mm | 1.34 m/s, 304° | 156 W/m² | - |
| 1777991511 | 17.22° C | 56% | 1004.2 hPa | 0 mm | 1.34 m/s, 317° | 160 W/m² | - |
| 1777991217 | 17.22° C | 57% | 1004.4 hPa | 0 mm | 1.34 m/s, 330° | 183 W/m² | - |
| 1777990921 | 17.22° C | 57% | 1004.4 hPa | 0 mm | 1.34 m/s, 300° | 186 W/m² | - |
| 1777990624 | 17.22° C | 56% | 1004.4 hPa | 0 mm | 1.79 m/s, 310° | 156 W/m² | - |
| 1777990326 | 17.22° C | 56% | 1005.2 hPa | 0 mm | 1.79 m/s, 304° | 142 W/m² | - |
| 1777990030 | 17.78° C | 56% | 1005.2 hPa | 0 mm | 1.79 m/s, 279° | 162 W/m² | - |
| 1777989712 | 17.78° C | 58% | 1005.2 hPa | 0 mm | 1.79 m/s, 300° | 218 W/m² | - |
| 1777989421 | 17.78° C | 58% | 1005.3 hPa | 0 mm | 2.24 m/s, 283° | 258 W/m² | - |
| 1777989109 | 17.78° C | 60% | 1005.3 hPa | 0 mm | 2.68 m/s, 360° | 248 W/m² | - |
| 1777988816 | 17.78° C | 59% | 1005.3 hPa | 0 mm | 2.68 m/s, 284° | 262 W/m² | - |
| 1777988512 | 17.22° C | 60% | 1005.2 hPa | 0 mm | 2.68 m/s, 306° | 265 W/m² | - |
| 1777988220 | 17.22° C | 60% | 1005.2 hPa | 0 mm | 2.68 m/s, 360° | 213 W/m² | - |
| 1777987912 | 17.22° C | 61% | 1005.2 hPa | 0 mm | 2.24 m/s, 303° | 160 W/m² | - |
| 1777987614 | 17.22° C | 62% | 1005.2 hPa | 0 mm | 2.24 m/s, 306° | 130 W/m² | - |
| 1777987313 | 17.22° C | 63% | 1005.2 hPa | 0 mm | 2.68 m/s, 310° | 120 W/m² | - |
| 1777987018 | 17.78° C | 62% | 1005.2 hPa | 0 mm | 2.68 m/s, 250° | 125 W/m² | - |
| 1777986723 | 17.78° C | 62% | 1004.9 hPa | 0 mm | 3.13 m/s, 360° | 137 W/m² | - |
| 1777986422 | 17.78° C | 61% | 1004.9 hPa | 0 mm | 3.13 m/s, 315° | 121 W/m² | - |
| 1777986124 | 18.33° C | 62% | 1004.9 hPa | 0 mm | 3.58 m/s, 306° | 162 W/m² | - |
* Rain since midnight (hover to see other rain measurements)
** Current wind speed in m/s (hover to see current wind gust speed)